Starlink 32792

operational
NORAD ID: 62504 Int'l Des: 2025-003 Owner: SPXS Country: US Constellation: starlink
LEOCIRCULAR

Über Starlink 32792

Beschreibung wird geladen...

Live-Position

3D-Globus wird geladen...

Nächste Überflüge

Höhenverlauf

Altitude vs Time

uPlot chart will show altitude changes over time

Zweizeiliger Elementsatz

1 62504U 25003T 25347.55701130 .00034975 00000-0 12725-2 0 9997
2 62504 42.9996 54.9731 0001122 259.4983 100.5742 15.27631426 53388
Epoch: 13. Dez. 2025 • Age: 18 hours

Aktueller Status

Höhe 485.7 km
Geschwindigkeit 7.63 km/s
Subsatellitenpunkt 39.25°N, 19.82°W
Startdatum 6. Jan. 2025
Alter 0.9 years
Typ internet

Technische Details

Klassifizierung Payload
Masse 730.00 kg
Trockenmasse 700.00 kg
Gesamtmasse 730.00 kg
Länge 0.30 m
Durchmesser 4.10 m
Spannweite 29.00 m
Form Box + pan
Hersteller SPXS
Bus-Typ Starlink V2M
Phasenstatus In Orbit
Besitzer/Staat SPXS/US

Große Konstellationen

Loading constellations...